Volver al catálogo

STARLINK-4554

ActivoComunicacionesVLEO
NORAD 53626·PAYLOAD·🇺🇸 United States

Lanzado Aug 28, 2022 desde Cape Canaveral Space Force Station

Loading…

Próximos Pases (próximas 24 horas)

TLE

ActualizadoSource: CelesTrak SupGP

Época: Sep 14, 2026, 20:45 UTC

1 53626C 22104AQ  26257.86506944 -.00024593  00000+0 -74642-3 0  2572
2 53626  53.1579  94.3548 0001364  89.0722 332.7049 15.33553813    15

Sigue STARLINK-4554 en tiempo real con AllMySat

Download on the App Store